Temp
12 12 12 12 11 11 12 15 15 17 16 17 17 17 18 16 16 17 17 16 16 16 15 16 16 16 16 16 16 16 16 16 15 15 15 14 14 14 13 13 13 13 13 13 13 13 13 12 12
12 12 12 11 11 11 13 15 16 16 16 16 16 17 17 17 17 17 17 16 16 16 15 15 16 16 16 16 16 16 16 16 15 15 14 14 14 14 13 13 13 13 13 13 13 13 12 12 12
12 11 11 10 11 12 13 15 15 15 15 16 16 16 16 17 17 17 17 16 16 15 16 15 16 16 16 16 16 16 16 16 15 15 15 14 14 14 13 13 13 13 13 13 13 13 12 12 12
11 10 10 10 11 13 14 15 14 14 15 15 15 16 15 15 15 15 16 16 16 16 16 16 15 16 16 16 16 16 16 16 16 15 15 14 14 14 13 13 13 13 13 13 12 12 12 12 11
10 10 10 10 11 13 14 14 14 14 14 15 15 16 15 15 15 15 15 15 15 15 16 15 15 15 15 16 16 16 16 15 15 15 15 14 14 13 13 13 13 13 13 13 12 12 12 11 11
9 10 9 10 12 13 13 14 13 14 14 15 14 15 15 15 14 14 15 15 15 15 15 15 15 15 15 15 15 15 15 15 15 15 14 14 13 13 13 13 13 13 12 12 12 12 11 11 11
10 10 10 10 11 12 13 14 14 14 14 15 15 14 14 14 14 15 15 15 15 15 15 15 15 15 14 14 14 14 14 14 14 15 15 14 14 13 12 12 12 12 12 12 12 11 11 11 11
10 9 10 10 10 12 13 13 13 13 14 15 15 14 14 14 14 14 15 15 15 14 14 14 14 14 14 14 14 14 14 13 14 14 14 14 13 13 13 12 12 12 12 12 11 11 11 10 10
10 8 8 10 11 13 13 12 12 13 14 14 14 15 14 14 13 13 13 14 14 14 13 12 12 13 13 13 13 13 13 14 13 13 13 13 13 13 12 12 12 11 11 11 11 11 10 10 10
8 9 9 11 11 12 13 11 11 12 13 14 14 13 13 12 11 11 12 13 12 13 13 12 11 11 12 12 13 13 12 12 13 13 12 12 12 12 12 12 12 11 11 11 11 10 10 10 10
9 9 10 11 11 11 12 11 11 11 12 13 13 13 13 12 11 11 11 13 11 12 12 11 10 10 11 12 12 11 11 11 11 11 11 11 11 11 11 11 11 11 10 10 10 10 10 9 9
8 9 9 10 10 11 11 10 10 11 11 12 13 13 12 12 12 12 12 12 11 11 11 10 9 10 10 10 11 11 11 11 11 11 11 11 11 11 11 10 10 10 10 9 9 9 9 8 8
7 9 9 9 9 10 10 10 9 10 11 11 12 13 13 13 12 11 12 12 11 11 10 10 9 10 10 9 9 10 11 12 11 12 11 11 11 10 10 10 10 10 10 9 9 8 8 8 7
9 9 9 8 9 9 9 10 10 10 10 11 11 11 12 12 12 12 12 11 11 11 10 10 9 9 10 9 8 8 10 10 10 11 10 10 10 10 9 9 9 9 10 10 9 9 8 8 7
8 7 7 8 8 8 9 9 10 10 10 10 11 11 11 12 11 11 11 11 11 11 10 9 10 10 9 10 10 10 9 10 10 9 10 9 9 8 10 9 9 10 10 9 9 9 8 8 8
6 6 6 8 8 9 9 9 10 10 10 10 11 11 11 10 10 10 11 11 11 10 10 10 9 9 10 11 10 10 9 9 9 9 8 8 8 8 8 8 8 7 8 8 8 7 7 7 6
6 6 7 7 8 8 9 9 10 10 10 10 10 10 10 10 10 10 10 10 10 10 10 10 9 9 10 10 10 7 8 9 8 8 8 8 8 8 8 7 7 7 7 7 7 6 7 6 7
5 6 7 7 8 8 9 9 9 10 10 10 10 10 10 10 10 10 10 10 10 10 10 10 9 9 10 10 8 7 7 8 8 8 7 7 7 7 7 6 6 7 7 7 7 7 6 7 6
6 6 6 7 8 9 9 9 9 10 10 10 10 10 10 10 10 10 10 10 10 10 10 9 9 9 9 9 9 8 8 7 6 6 7 7 7 7 6 6 6 6 6 7 6 6 6 6 5
5 5 6 7 8 8 9 9 10 10 10 11 11 11 11 10 10 10 10 10 10 10 9 8 8 9 8 8 7 7 7 7 7 8 8 7 6 7 7 7 7 6 6 6 6 6 5 6 6
5 5 6 6 8 8 8 9 10 10 11 11 11 11 11 10 10 10 10 10 10 8 8 8 9 8 8 8 8 8 8 8 8 8 7 7 7 7 7 7 7 7 6 6 6 6 6 6 6
5 5 6 7 7 7 9 8 10 10 10 11 10 11 10 10 10 10 10 10 9 9 9 8 8 8 8 8 8 8 7 7 7 7 8 7 7 7 7 7 7 7 6 6 6 6 6 6 5
5 6 6 7 7 7 8 9 10 10 10 10 10 10 10 10 10 10 10 9 9 8 8 8 8 7 8 7 7 7 7 7 7 7 7 7 7 7 7 7 7 6 6 6 5 5 5 5 5
5 5 6 7 7 6 8 8 9 10 10 10 10 10 10 10 10 10 9 9 9 8 7 7 7 6 7 7 7 7 7 6 7 6 6 6 7 7 7 6 6 6 5 5 5 5 5 5 5
5 5 5 4 5 5 8 8 9 9 10 10 10 9 9 9 10 9 9 9 8 8 8 8 8 8 8 8 7 7 7 6 6 6 6 6 6 5 5 5 5 5 5 5 5 5 5 5 5
5 5 5 3 2 5 8 7 9 9 9 9 9 8 8 9 8 8 9 9 8 8 8 9 9 8 8 8 8 7 6 6 6 6 6 5 5 5 5 5 5 5 5 5 5 5 4 4 5
5 6 6 7 6 6 7 8 8 9 9 9 9 9 8 8 9 8 8 8 8 8 8 8 8 8 8 7 7 6 6 6 5 5 5 5 5 5 5 5 5 5 5 5 5 5 5 5 5
5 6 7 7 2 3 4 7 8 8 7 8 8 8 8 8 8 8 8 7 7 7 7 7 7 7 7 7 7 6 5 4 4 4 5 5 5 5 5 5 5 5 5 5 5 5 5 5 5
6 6 7 7 8 -0 2 4 6 7 7 6 7 7 8 7 7 8 7 7 6 6 7 6 6 6 6 6 5 5 5 4 5 5 4 5 5 5 5 5 5 5 5 5 5 4 5 5 5
4 6 6 7 4 7 7 3 5 6 7 4 6 6 6 7 7 7 6 5 5 5 6 6 6 5 5 4 4 4 4 4 4 4 4 4 4 5 5 5 5 5 4 4 4 4 4 4 5
Height
3162 3163 3165 3166 3173 3168 3164 3162 3165 3167 3170 3169 3170 3170 3168 3165 3168 3171 3170 3171 3173 3173 3174 3176 3177 3177 3179 3179 3179 3179 3178 3178 3178 3178 3178 3178 3178 3178 3179 3180 3180 3180 3181 3181 3182 3183 3184 3185 3185
3159 3159 3162 3162 3164 3162 3159 3160 3162 3166 3167 3168 3169 3165 3162 3163 3166 3168 3169 3170 3172 3173 3175 3176 3177 3177 3178 3179 3179 3179 3179 3180 3179 3179 3179 3180 3180 3181 3181 3181 3182 3181 3182 3183 3183 3184 3185 3185 3186
3153 3155 3158 3157 3156 3156 3151 3156 3160 3165 3165 3167 3169 3162 3159 3160 3164 3167 3168 3170 3171 3173 3175 3176 3176 3176 3177 3179 3179 3179 3179 3180 3180 3180 3180 3180 3180 3180 3181 3182 3183 3183 3183 3184 3185 3186 3187 3187 3187
3148 3151 3152 3149 3147 3151 3150 3153 3159 3160 3161 3164 3166 3162 3157 3158 3162 3164 3166 3168 3168 3171 3172 3174 3174 3175 3176 3177 3178 3178 3179 3179 3180 3180 3179 3180 3180 3181 3182 3183 3184 3185 3185 3185 3186 3187 3188 3189 3190
3143 3145 3146 3142 3142 3146 3149 3150 3155 3156 3157 3159 3161 3158 3155 3157 3160 3161 3164 3167 3167 3169 3169 3171 3172 3173 3173 3175 3176 3177 3178 3178 3179 3179 3179 3179 3180 3181 3182 3183 3184 3184 3185 3186 3186 3188 3189 3190 3191
3139 3139 3137 3135 3137 3141 3144 3149 3153 3151 3153 3154 3157 3155 3154 3153 3157 3160 3161 3163 3164 3166 3167 3168 3169 3171 3172 3173 3174 3175 3176 3176 3176 3177 3177 3178 3179 3179 3180 3181 3182 3183 3184 3186 3186 3187 3188 3189 3190
3134 3133 3130 3131 3134 3136 3142 3148 3148 3149 3148 3148 3151 3150 3149 3148 3152 3156 3159 3160 3162 3164 3165 3166 3167 3168 3169 3171 3172 3173 3174 3175 3176 3175 3176 3176 3177 3177 3179 3180 3180 3182 3183 3184 3186 3187 3188 3188 3189
3130 3127 3124 3126 3130 3130 3140 3142 3144 3145 3144 3145 3147 3144 3146 3146 3146 3150 3155 3158 3160 3161 3162 3164 3165 3165 3166 3168 3169 3170 3171 3172 3173 3174 3174 3175 3175 3176 3177 3178 3180 3181 3182 3182 3184 3186 3188 3189 3189
3125 3119 3113 3119 3124 3128 3136 3137 3140 3141 3142 3141 3141 3143 3146 3144 3144 3144 3148 3152 3154 3157 3159 3160 3161 3164 3165 3167 3167 3168 3169 3170 3170 3171 3172 3173 3173 3174 3176 3177 3177 3178 3180 3181 3182 3185 3187 3189 3190
3115 3109 3108 3116 3122 3127 3132 3134 3137 3138 3138 3139 3138 3140 3141 3143 3144 3141 3143 3144 3149 3151 3153 3155 3157 3159 3162 3165 3167 3167 3167 3168 3169 3170 3170 3171 3171 3172 3173 3174 3174 3176 3178 3180 3181 3184 3187 3189 3190
3108 3098 3108 3112 3119 3124 3127 3130 3134 3135 3136 3138 3139 3138 3138 3141 3143 3143 3140 3142 3141 3147 3148 3149 3156 3159 3158 3161 3163 3163 3165 3166 3166 3168 3169 3169 3170 3170 3171 3171 3172 3173 3174 3177 3179 3181 3184 3186 3187
3099 3100 3105 3111 3116 3119 3120 3125 3128 3130 3132 3132 3133 3134 3137 3136 3139 3142 3140 3138 3138 3144 3146 3148 3152 3155 3147 3154 3162 3163 3163 3165 3165 3167 3168 3167 3168 3168 3169 3170 3171 3171 3172 3174 3175 3177 3178 3180 3181
3093 3100 3102 3106 3110 3113 3118 3117 3123 3123 3126 3128 3127 3129 3131 3134 3135 3135 3133 3133 3136 3139 3143 3143 3151 3155 3149 3150 3158 3161 3163 3164 3163 3163 3164 3164 3164 3166 3166 3168 3168 3169 3170 3171 3172 3173 3173 3174 3175
3094 3096 3097 3101 3104 3108 3113 3112 3116 3117 3121 3122 3123 3124 3126 3129 3131 3131 3131 3128 3130 3136 3137 3141 3145 3146 3148 3150 3154 3156 3158 3158 3158 3160 3162 3162 3161 3162 3164 3165 3165 3166 3166 3167 3167 3167 3168 3168 3167
3090 3090 3092 3094 3099 3103 3110 3103 3101 3112 3116 3116 3118 3119 3121 3125 3127 3127 3128 3126 3127 3132 3134 3136 3140 3143 3145 3146 3142 3146 3152 3153 3155 3157 3159 3159 3159 3159 3160 3163 3163 3163 3164 3166 3165 3165 3166 3168 3167
3084 3086 3083 3088 3093 3098 3104 3082 3099 3107 3109 3109 3111 3113 3115 3117 3119 3121 3121 3122 3123 3127 3131 3132 3135 3139 3141 3139 3140 3142 3147 3151 3152 3156 3155 3155 3156 3158 3159 3160 3161 3159 3159 3159 3161 3160 3160 3162 3162
3074 3072 3077 3082 3087 3093 3093 3086 3096 3102 3103 3103 3105 3108 3110 3112 3113 3115 3113 3114 3118 3123 3127 3130 3132 3134 3136 3137 3137 3140 3145 3145 3147 3150 3151 3152 3153 3154 3155 3156 3156 3154 3154 3155 3156 3155 3154 3153 3151
3064 3067 3070 3075 3082 3086 3086 3083 3091 3095 3096 3098 3099 3103 3106 3107 3108 3107 3108 3112 3115 3119 3124 3127 3129 3130 3133 3133 3135 3138 3142 3144 3143 3144 3147 3147 3148 3149 3149 3150 3151 3150 3150 3151 3152 3150 3148 3146 3144
3062 3065 3067 3072 3077 3081 3080 3081 3085 3088 3090 3091 3093 3096 3101 3103 3104 3104 3105 3109 3112 3115 3121 3124 3127 3130 3133 3133 3134 3136 3139 3142 3141 3143 3143 3145 3146 3145 3146 3146 3146 3145 3144 3144 3145 3142 3141 3140 3138
3058 3059 3063 3069 3071 3076 3076 3076 3079 3081 3082 3085 3088 3089 3093 3098 3100 3100 3103 3104 3109 3114 3118 3121 3124 3127 3128 3131 3133 3136 3138 3139 3139 3140 3142 3141 3140 3141 3141 3141 3141 3139 3140 3140 3138 3138 3138 3136 3136
3049 3053 3059 3065 3065 3071 3072 3070 3072 3075 3075 3080 3084 3087 3090 3093 3093 3096 3099 3103 3107 3110 3113 3117 3120 3123 3126 3129 3132 3134 3133 3135 3135 3135 3135 3135 3135 3135 3137 3139 3137 3135 3135 3135 3133 3133 3131 3130 3129
3043 3051 3056 3060 3064 3065 3068 3065 3066 3068 3071 3076 3079 3081 3085 3087 3089 3091 3095 3100 3104 3108 3111 3113 3116 3121 3124 3125 3128 3129 3128 3130 3131 3131 3131 3131 3132 3132 3133 3132 3130 3130 3130 3129 3128 3127 3125 3124 3124
3035 3049 3052 3055 3059 3063 3059 3063 3060 3063 3067 3072 3077 3076 3081 3083 3086 3088 3091 3095 3100 3104 3106 3109 3113 3116 3119 3120 3122 3124 3126 3127 3128 3128 3126 3126 3126 3127 3127 3128 3126 3124 3124 3122 3121 3120 3118 3115 3114
3039 3045 3050 3052 3054 3053 3052 3058 3057 3058 3063 3067 3073 3075 3078 3080 3082 3086 3090 3093 3096 3100 3104 3106 3108 3111 3113 3115 3119 3120 3122 3124 3125 3124 3123 3121 3120 3120 3120 3120 3119 3119 3118 3117 3115 3114 3112 3109 3107
3033 3039 3044 3047 3044 3042 3048 3051 3052 3055 3060 3065 3067 3069 3074 3077 3080 3083 3087 3091 3094 3097 3101 3103 3105 3107 3109 3111 3114 3116 3118 3121 3120 3121 3120 3117 3115 3115 3114 3113 3112 3111 3110 3108 3106 3104 3102 3099 3095
3022 3030 3032 3039 3040 3040 3044 3040 3046 3053 3058 3062 3063 3066 3069 3076 3079 3082 3085 3088 3091 3095 3098 3100 3102 3104 3105 3107 3108 3110 3113 3114 3115 3115 3115 3114 3113 3112 3111 3109 3108 3106 3104 3101 3097 3093 3090 3086 3083
3015 3020 3028 3033 3034 3034 3037 3040 3046 3047 3052 3055 3057 3062 3064 3069 3072 3078 3082 3086 3089 3092 3095 3097 3098 3100 3102 3103 3104 3105 3107 3108 3108 3109 3109 3109 3107 3106 3104 3102 3099 3096 3093 3089 3085 3082 3079 3074 3071
3010 3019 3022 3022 3031 3036 3034 3037 3038 3041 3044 3049 3052 3056 3060 3063 3067 3073 3078 3082 3086 3088 3090 3092 3095 3097 3099 3100 3100 3101 3102 3103 3103 3103 3103 3102 3100 3098 3095 3091 3088 3085 3080 3076 3071 3067 3064 3061 3059
3004 3008 3013 3020 3020 3028 3036 3036 3038 3040 3041 3045 3049 3053 3053 3059 3064 3068 3072 3078 3082 3085 3087 3088 3090 3092 3093 3095 3096 3097 3097 3097 3097 3096 3095 3094 3092 3089 3085 3081 3078 3073 3069 3064 3059 3055 3051 3047 3044
2993 2999 3008 3007 3015 3019 3025 3034 3036 3039 3040 3045 3045 3051 3054 3058 3064 3068 3070 3076 3081 3083 3084 3085 3086 3087 3088 3089 3091 3092 3092 3092 3090 3090 3088 3085 3082 3079 3075 3071 3067 3063 3059 3054 3049 3045 3040 3036 3033
Wind_Speed
22 24 22 19 11 12 19 26 17 12 9 6 8 16 15 6 7 4 6 6 10 7 7 9 8 5 3 4 5 5 5 7 8 9 12 14 14 14 13 11 9 9 8 9 10 11 13 13 15
23 24 23 19 16 20 26 22 20 9 6 4 7 12 15 17 12 3 5 7 9 5 9 10 10 8 7 7 6 6 5 6 7 8 11 13 12 12 11 10 9 8 8 9 10 12 13 13 16
23 22 23 16 22 29 34 23 18 3 6 5 15 11 16 19 19 20 10 4 4 5 7 12 12 12 11 10 9 8 7 7 7 8 10 13 13 12 12 10 9 9 8 9 10 11 11 12 15
22 22 23 23 25 31 33 23 20 19 17 9 16 20 14 9 8 9 15 14 15 17 15 14 16 16 15 14 12 10 9 8 8 8 10 13 13 12 12 10 9 9 8 9 11 12 12 12 14
22 24 27 27 32 33 29 28 22 20 19 15 15 23 16 15 10 10 11 13 13 14 17 18 20 21 20 18 15 13 11 9 9 10 10 12 14 13 12 11 10 10 10 11 12 12 12 12 13
25 27 23 34 35 30 29 26 19 22 20 18 18 26 22 16 11 13 17 18 18 18 18 20 21 24 22 20 18 16 14 13 12 12 12 12 14 15 14 14 13 12 12 12 13 14 14 14 14
27 30 34 33 29 28 23 16 17 23 24 24 21 23 18 10 8 11 16 15 16 15 17 20 23 25 24 21 20 18 16 14 14 13 13 13 14 16 16 16 15 14 14 14 15 16 16 16 16
27 32 36 36 32 30 17 17 8 14 21 21 22 18 18 14 11 13 18 17 16 15 15 17 22 25 25 24 22 20 18 17 16 15 15 15 15 16 18 17 16 15 15 16 16 17 17 18 18
29 37 42 40 34 29 22 15 2 10 18 21 26 28 16 11 14 17 17 23 23 18 15 14 13 22 23 23 22 21 20 18 18 17 16 16 16 16 16 18 17 17 17 17 17 18 18 18 19
36 45 46 38 33 26 22 16 10 14 15 19 16 17 16 15 15 18 16 21 18 21 22 22 20 16 18 21 21 21 20 19 18 17 16 16 16 16 17 19 20 19 18 18 17 17 17 17 18
39 49 41 38 31 24 25 19 9 12 16 16 18 17 18 19 21 16 16 26 22 20 25 26 21 19 17 19 22 23 22 20 18 17 17 16 16 17 18 19 20 21 20 19 19 19 19 19 20
43 44 38 34 29 27 32 23 21 15 16 22 27 26 22 20 15 17 25 30 30 25 26 28 23 31 21 13 21 25 26 21 18 16 17 17 17 17 17 18 19 21 22 22 22 22 22 21 21
43 37 36 34 31 29 30 31 24 23 21 18 26 33 30 32 25 19 29 32 28 29 24 27 21 26 30 7 23 29 30 22 18 19 21 19 18 17 18 17 18 20 23 23 24 25 24 23 22
34 34 34 30 24 24 26 31 26 22 24 27 27 29 32 29 29 27 31 31 32 31 25 26 25 24 22 12 9 25 29 22 21 24 20 21 21 20 19 18 16 18 22 25 27 30 31 30 29
30 27 23 26 23 24 23 35 38 25 22 28 27 36 35 33 33 33 33 34 31 29 24 16 21 19 11 11 7 19 33 34 27 14 22 22 21 20 22 19 18 21 20 25 28 29 26 28 33
24 28 35 29 28 26 26 50 38 30 25 25 25 25 25 21 20 21 36 42 36 28 25 21 11 10 9 9 18 24 32 31 23 23 17 17 16 14 12 17 19 22 24 24 28 25 29 37 37
32 32 33 34 29 26 30 42 34 29 33 25 23 21 22 21 20 22 26 32 37 26 29 24 13 13 10 12 16 23 23 18 15 14 16 13 12 16 19 20 17 23 24 31 31 27 29 33 42
32 36 33 31 32 29 34 35 31 27 27 34 28 29 27 20 19 16 26 24 23 22 22 21 19 10 10 15 20 20 19 20 17 14 13 14 22 23 19 19 18 22 24 23 23 25 27 33 36
34 32 29 30 31 27 33 35 33 31 33 31 27 30 25 22 15 14 20 23 25 24 22 18 14 13 14 14 13 10 16 13 14 13 14 18 23 18 19 23 27 29 28 23 23 27 32 29 23
37 30 32 29 26 25 29 33 30 30 31 27 20 19 27 24 20 19 20 24 22 23 22 19 10 14 13 12 10 11 16 15 15 17 18 13 14 13 15 17 18 21 24 25 23 23 23 19 24
39 37 31 31 29 29 28 26 34 27 33 29 26 27 21 24 26 28 26 27 22 26 22 17 13 13 12 11 13 14 17 13 13 11 12 14 15 16 17 18 17 16 17 18 20 23 26 26 26
37 36 33 32 32 23 18 14 29 22 26 21 24 22 28 29 26 30 31 29 29 26 24 20 20 19 17 16 14 13 14 13 13 15 17 20 20 23 24 24 24 24 25 26 27 28 29 30 31
40 33 31 28 33 30 31 9 21 21 20 23 14 14 27 25 27 28 35 31 27 27 25 22 21 19 18 16 15 17 19 18 16 18 21 24 27 28 28 29 29 29 30 30 31 31 32 34 36
30 26 27 29 32 20 34 20 15 19 22 20 17 15 20 26 26 26 30 30 30 27 24 22 19 21 18 20 19 22 23 22 21 22 25 28 31 31 30 30 31 32 32 32 33 34 35 37 40
32 33 13 9 12 9 24 17 17 21 19 22 14 22 29 24 27 29 29 30 31 30 28 26 24 22 22 21 22 22 23 24 24 26 26 28 28 26 27 28 30 32 34 37 40 41 42 44 46
40 33 15 7 4 4 19 10 11 20 24 16 15 21 31 37 25 30 31 32 32 28 26 25 27 27 23 21 19 22 22 23 23 23 23 24 25 25 27 29 32 36 40 44 47 48 48 49 49
38 39 35 19 9 7 6 11 23 28 27 27 30 24 33 38 39 32 29 31 26 23 23 26 23 22 21 19 18 18 19 20 21 22 22 23 25 28 31 35 39 43 46 46 47 48 48 49 49
39 28 32 21 7 4 3 10 10 13 24 28 30 30 37 41 40 34 31 26 22 26 27 22 19 19 20 20 20 20 19 20 21 22 24 27 29 33 37 42 44 45 46 46 47 47 46 45 43
26 44 28 32 20 6 5 4 8 11 25 30 32 37 42 43 39 36 25 23 22 18 18 17 17 17 18 19 21 21 22 23 24 27 29 31 34 38 42 44 44 44 44 44 43 43 43 42 41
29 20 40 24 7 12 17 5 14 12 22 30 37 37 34 29 30 28 25 29 23 18 18 18 19 19 18 19 20 21 23 25 27 30 33 36 39 41 43 43 43 42 41 40 40 40 40 41 42
Wind_Direction
245 250 248 252 247 236 242 242 256 238 292 299 259 235 242 209 150 189 164 174 191 154 175 189 179 179 224 241 247 255 235 212 195 189 181 172 168 167 167 163 156 154 151 148 145 144 142 141 137
240 242 246 239 233 230 245 242 239 273 310 164 227 249 244 246 253 214 197 153 177 203 216 198 204 190 204 222 226 237 239 228 207 190 183 176 174 173 172 169 165 162 157 153 150 148 147 146 142
239 232 234 223 230 234 245 237 244 147 123 198 265 249 254 242 244 253 225 281 205 216 240 223 214 210 206 217 218 220 221 225 214 199 191 184 183 181 181 179 173 170 165 159 155 153 154 154 151
235 226 220 224 227 243 248 249 251 248 240 273 275 253 252 230 227 225 251 257 229 253 255 238 224 221 215 215 219 217 221 215 219 212 198 193 191 190 189 187 184 180 174 169 165 163 165 166 161
233 229 221 229 231 242 246 255 262 250 267 267 252 243 248 233 199 219 222 210 228 251 243 239 231 221 216 215 218 217 217 220 219 213 206 198 197 198 196 194 193 189 184 180 175 174 175 177 173
222 224 226 230 238 239 238 245 263 268 270 271 256 249 241 228 224 217 227 235 246 247 239 235 235 229 223 217 214 214 213 215 213 216 212 205 202 201 201 199 199 198 193 191 186 183 184 186 185
224 228 233 240 244 243 242 231 234 266 263 270 271 233 227 224 236 239 232 237 257 259 246 237 231 228 224 221 217 215 214 217 218 221 222 219 215 211 208 206 205 202 199 198 197 195 194 195 195
223 232 236 237 237 243 210 213 267 294 282 263 227 212 218 230 254 264 257 263 263 266 241 237 237 232 225 221 219 219 217 215 220 220 220 219 216 219 218 214 214 212 208 205 205 204 204 204 206
227 228 235 235 235 243 209 221 355 291 264 235 209 234 245 229 219 236 241 266 266 255 240 232 245 245 234 226 225 225 225 221 222 221 222 222 221 222 225 224 223 220 217 215 213 214 215 213 214
221 230 235 240 239 238 208 234 288 293 247 232 211 190 208 215 217 228 254 268 261 262 265 259 234 231 234 240 238 234 231 229 230 229 225 225 225 224 224 226 225 225 228 226 224 225 227 231 232
230 238 243 244 241 232 223 234 253 274 235 227 204 193 198 210 200 203 232 255 242 243 255 246 236 218 220 235 236 235 231 230 229 229 230 229 232 231 231 230 229 227 227 228 229 232 236 238 242
234 239 243 249 245 228 224 243 244 245 238 220 216 221 223 218 230 233 232 235 249 247 250 260 237 241 196 225 261 253 239 233 234 242 243 240 240 240 240 241 237 235 232 232 232 232 234 238 243
233 241 244 246 242 232 227 236 255 249 233 226 223 228 236 233 229 232 247 245 244 255 248 250 241 244 256 228 262 263 247 233 238 248 245 247 250 246 246 245 246 247 247 243 242 240 240 240 245
242 246 243 238 234 231 243 248 249 246 265 249 235 230 237 235 231 235 242 248 251 247 259 260 254 257 247 189 253 251 232 241 240 244 246 250 253 254 252 251 248 252 253 250 247 247 244 242 244
246 242 242 234 228 243 254 258 244 245 259 267 253 237 243 249 242 237 235 246 248 245 253 263 261 266 294 264 237 218 227 244 239 267 272 262 254 262 270 277 275 271 279 276 271 266 267 272 269
222 244 248 228 222 223 234 250 248 241 250 256 263 256 246 237 244 243 239 236 243 246 249 260 267 245 270 297 235 229 233 238 237 243 240 245 255 266 282 287 293 296 292 282 284 278 268 271 284
224 240 239 245 225 241 239 253 258 256 248 251 236 250 247 247 245 259 253 234 235 244 248 253 262 283 289 248 234 217 219 231 219 231 239 257 291 283 287 293 287 283 283 277 279 278 287 291 298
222 229 237 244 229 242 241 247 248 248 256 244 240 250 243 245 253 247 225 226 234 238 241 250 259 263 240 234 204 200 219 230 239 247 250 278 291 292 290 289 275 277 273 272 273 282 288 293 288
223 236 242 245 234 234 237 248 248 244 252 257 240 243 225 237 219 225 225 229 231 239 244 234 232 245 217 200 189 195 205 216 235 247 265 269 268 281 285 276 275 274 277 279 287 295 296 295 290
229 236 239 239 229 246 251 251 253 241 250 245 241 211 215 224 215 201 209 222 225 231 224 204 208 213 194 190 194 212 225 227 241 260 261 267 272 273 288 295 297 290 287 285 288 291 294 297 292
230 230 233 233 227 249 257 277 251 254 252 228 227 227 214 216 217 206 207 216 214 212 213 227 222 206 206 218 239 233 234 235 253 270 282 281 283 296 299 300 306 305 303 297 297 294 297 298 299
227 228 234 230 249 260 254 259 226 213 212 207 210 230 210 211 214 217 209 210 209 213 223 230 228 220 233 249 253 253 249 249 256 269 280 284 287 288 293 297 299 296 295 295 294 293 294 295 294
230 232 226 231 247 256 259 249 210 208 209 202 196 202 210 216 227 222 214 211 211 220 225 226 229 236 250 248 257 252 248 251 260 267 273 278 284 291 294 292 294 295 295 293 293 293 293 294 294
218 225 241 242 246 242 248 233 217 216 224 217 239 211 226 228 217 207 205 210 222 213 215 221 229 234 248 249 248 248 244 245 249 256 267 279 288 294 294 293 293 293 294 293 292 290 289 288 288
218 228 232 242 221 228 237 231 225 228 216 228 238 224 209 228 216 206 207 210 211 218 221 226 233 243 251 249 246 238 237 243 251 260 268 279 285 288 290 292 294 295 296 295 292 290 288 287 286
221 222 209 201 171 183 213 215 223 242 231 233 229 227 228 225 217 203 207 217 212 215 224 236 245 244 245 247 243 238 241 247 253 261 268 273 277 280 283 287 288 289 291 289 288 287 286 287 287
224 223 228 223 227 170 202 247 250 250 246 243 233 222 214 212 220 214 210 218 224 229 231 234 228 232 236 239 240 244 248 252 256 262 267 273 278 282 285 287 289 291 293 291 288 287 286 285 286
226 227 207 217 147 157 183 209 218 227 215 221 216 210 204 209 210 205 215 220 236 231 228 227 229 231 239 244 245 247 250 254 258 264 268 274 279 284 288 293 295 296 296 295 293 292 290 288 287
209 215 219 219 208 148 158 203 191 208 201 193 202 205 207 205 208 212 208 233 246 239 237 240 241 239 240 242 244 247 252 259 265 271 278 283 286 289 294 296 298 298 298 297 295 294 293 293 295
225 215 209 197 161 183 202 154 173 198 214 191 190 197 199 213 225 228 212 218 237 234 236 239 243 243 242 244 247 253 258 265 272 278 285 289 292 292 295 298 299 300 299 298 295 295 296 299 299